Weather History for Lyndonville, VT

Change the Weather History Date:

Monday, April 15, 2013

  Actual Average (K1V4) Record (K1V4)
Temperature  
Mean Temperature 41 °F 44 °F  
Max Temperature 56 °F 56 °F 80 °F (2003)
Min Temperature 26 °F 33 °F 10 °F (1940)
Degree Days  
Heating Degree Days 24 21  
Month to date heating degree days 359  
Since 1 July heating degree days 7159  
Cooling Degree Days 0 0  
Month to date cooling degree days 0  
Year to date cooling degree days 0  
Moisture  
Dew Point 24 °F    
Average Humidity 58    
Maximum Humidity 92    
Minimum Humidity 23    
Precipitation  
Precipitation 0.00 in 0.09 in 1.63 in (2014)
Month to date precipitation 1.38  
Year to date precipitation 8.57  
Sea Level Pressure  
Sea Level Pressure 30.27 in    
Wind  
Wind Speed 3 mph (South)    
Max Wind Speed 14 mph    
Max Gust Speed 20 mph    
Visibility 10 miles    
Events      
T = Trace of Precipitation, MM = Missing Value Source: NWS Daily Summary

Daily Weather History Graph

Daily Weather History Graph

Search for Another Location

Airport:

Trip Planner

Search our weather history database for the weather conditions in past years. The results will help you decide how hot, cold, wet, or windy it might be!

Date:

Astronomy

Apr. 15, 2013 Rise Set
Actual Time 6:03 AM EDT 7:33 PM EDT
Civil Twilight 5:33 AM EDT 8:03 PM EDT
Nautical Twilight 4:56 AM EDT 8:40 PM EDT
Astronomical Twilight 4:17 AM EDT 9:20 PM EDT
Moon 9:20 AM EDT (4/15) No Moon Set
Length of Visible Light 14h 30m
Length of Day
13h 29m
Waxing Crescent, 24% of the Moon is Illuminated
Apr 15
Waxing Crescent
Apr 18
First Quarter
Apr 25
Full
May 2
Last Quarter
May 9
New

Hourly Weather History & Observations

Time (EDT) Temp. Windchill Dew Point Humidity Pressure Visibility Wind Dir Wind Speed Gust Speed Precip Events Conditions
12:15 AM 29.7 °F - 25.2 °F 83% 30.20 in 10.0 mi Calm Calm - N/A   Clear
12:35 AM 31.1 °F - 26.8 °F 84% 30.21 in 10.0 mi Calm Calm - N/A   Clear
12:55 AM 32.5 °F - 27.9 °F 83% 30.22 in 10.0 mi Calm Calm - N/A   Clear
1:15 AM 29.1 °F 25.4 °F 25.7 °F 87% 30.22 in 10.0 mi SSW 3.5 mph - N/A   Clear
1:35 AM 30.7 °F - 27.9 °F 89% 30.23 in 10.0 mi Calm Calm - N/A   Clear
1:55 AM 30.9 °F - 27.9 °F 88% 30.23 in 10.0 mi Calm Calm - N/A   Clear
2:15 AM 28.2 °F - 25.3 °F 89% 30.23 in 10.0 mi Calm Calm - N/A   Clear
2:35 AM 28.2 °F - 25.9 °F 91% 30.23 in 10.0 mi Calm Calm - N/A   Clear
2:55 AM 28.4 °F - 26.1 °F 91% 30.23 in 10.0 mi Calm Calm - N/A   Clear
3:15 AM 27.9 °F - 25.5 °F 91% 30.23 in 10.0 mi Calm Calm - N/A   Clear
3:35 AM 28.0 °F - 25.3 °F 90% 30.24 in 10.0 mi Calm Calm - N/A   Clear
3:55 AM 28.2 °F - 25.7 °F 90% 30.24 in 10.0 mi Calm Calm - N/A   Clear
4:15 AM 28.4 °F - 26.1 °F 91% 30.25 in 10.0 mi Calm Calm - N/A   Clear
4:35 AM 27.5 °F - 25.0 °F 90% 30.25 in 10.0 mi Calm Calm - N/A   Clear
4:55 AM 27.3 °F - 24.8 °F 90% 30.26 in 10.0 mi Calm Calm - N/A   Clear
5:15 AM 26.6 °F - 24.4 °F 92% 30.27 in 7.0 mi Calm Calm - N/A   Clear
5:35 AM 27.1 °F - 24.8 °F 91% 30.29 in 10.0 mi Calm Calm - N/A   Clear
5:55 AM 27.1 °F - 24.6 °F 90% 30.29 in 10.0 mi Calm Calm - N/A   Clear
6:15 AM 26.8 °F - 24.3 °F 90% 30.30 in 10.0 mi Calm Calm - N/A   Clear
6:35 AM 26.6 °F - 24.3 °F 91% 30.30 in 10.0 mi Calm Calm - N/A   Clear
6:55 AM 27.5 °F - 25.3 °F 92% 30.30 in 10.0 mi Calm Calm - N/A   Clear
7:15 AM 28.8 °F - 26.2 °F 90% 30.32 in 10.0 mi Calm Calm - N/A   Clear
7:35 AM 29.5 °F - 27.1 °F 91% 30.33 in 10.0 mi Calm Calm - N/A   Clear
7:55 AM 30.4 °F 25.6 °F 27.7 °F 90% 30.34 in 10.0 mi WSW 4.6 mph - N/A   Clear
8:15 AM 31.6 °F - 28.4 °F 88% 30.34 in 10.0 mi Calm Calm - N/A   Clear
8:35 AM 33.8 °F - 29.5 °F 84% 30.35 in 10.0 mi Calm Calm - N/A   Clear
8:55 AM 35.2 °F - 30.6 °F 83% 30.35 in 10.0 mi Calm Calm - N/A   Clear
9:15 AM 37.2 °F - 30.4 °F 76% 30.34 in 10.0 mi Calm Calm - N/A   Clear
9:35 AM 39.7 °F 37.6 °F 30.6 °F 70% 30.35 in 10.0 mi SSW 3.5 mph - N/A   Clear
9:55 AM 40.8 °F 38.8 °F 28.8 °F 62% 30.35 in 10.0 mi SW 3.5 mph - N/A   Clear
10:15 AM - - - N/A% - - North - - N/A   Clear
10:35 AM - - - N/A% - - North - - N/A   Unknown
10:55 AM - - - N/A% - - North - - N/A   Unknown
11:15 AM - - - N/A% - - North - - N/A   Unknown
11:35 AM - - - N/A% - - North - - N/A   Unknown
11:55 AM - - - N/A% - - North - - N/A   Unknown
12:15 PM - - - N/A% - - North - - N/A   Unknown
12:35 PM 49.8 °F - 20.3 °F 31% 30.30 in 10.0 mi South 13.8 mph 17.3 mph N/A   Unknown
12:55 PM 50.5 °F - 17.6 °F 27% 30.30 in 10.0 mi South 10.4 mph 19.6 mph N/A   Clear
1:15 PM 50.7 °F - 19.6 °F 29% 30.30 in 10.0 mi South 10.4 mph 18.4 mph N/A   Clear
1:35 PM 51.8 °F - 18.0 °F 26% 30.30 in 10.0 mi South 9.2 mph - N/A   Clear
1:55 PM 52.0 °F - 19.0 °F 27% 30.30 in 10.0 mi SE 11.5 mph - N/A   Clear
2:15 PM 52.3 °F - 19.2 °F 27% 30.29 in 10.0 mi SSW 9.2 mph 17.3 mph N/A   Clear
2:35 PM 53.1 °F - 18.9 °F 26% 30.28 in 10.0 mi South 10.4 mph - N/A   Clear
2:55 PM 54.5 °F - 18.3 °F 24% 30.28 in 10.0 mi South 11.5 mph 16.1 mph N/A   Clear
3:15 PM 54.5 °F - 18.1 °F 24% 30.27 in 10.0 mi SSE 9.2 mph 17.3 mph N/A   Clear
3:35 PM 54.7 °F - 18.9 °F 25% 30.25 in 10.0 mi SE 9.2 mph - N/A   Clear
3:55 PM 55.2 °F - 18.9 °F 24% 30.25 in 10.0 mi SSE 8.1 mph - N/A   Clear
4:15 PM 55.2 °F - 19.4 °F 25% 30.25 in 10.0 mi SSE 3.5 mph - N/A   Clear
4:35 PM 55.4 °F - 18.0 °F 23% 30.24 in 10.0 mi SSE 6.9 mph - N/A   Clear
4:55 PM 55.4 °F - 18.5 °F 24% 30.24 in 10.0 mi SSE 6.9 mph - N/A   Clear
5:15 PM 56.3 °F - 19.2 °F 24% 30.24 in 10.0 mi South 5.8 mph - N/A   Clear
5:35 PM 56.1 °F - 19.2 °F 24% 30.24 in 10.0 mi South 6.9 mph - N/A   Clear
5:55 PM 56.3 °F - 18.9 °F 23% 30.25 in 10.0 mi South 6.9 mph - N/A   Clear
6:15 PM 54.9 °F - 18.7 °F 24% 30.25 in 10.0 mi South 5.8 mph - N/A   Clear
6:35 PM 54.7 °F - 20.8 °F 27% 30.26 in 10.0 mi SSW 6.9 mph - N/A   Clear
6:55 PM 53.1 °F - 21.6 °F 29% 30.26 in 10.0 mi South 4.6 mph - N/A   Clear
7:15 PM 52.3 °F - 22.6 °F 31% 30.27 in 10.0 mi South 5.8 mph - N/A   Clear
7:35 PM 51.8 °F - 23.0 °F 33% 30.25 in 10.0 mi SE 3.5 mph - N/A   Clear
7:55 PM 50.9 °F - 23.9 °F 35% 30.24 in 10.0 mi SE 3.5 mph - N/A   Clear
8:15 PM 50.2 °F - 24.3 °F 36% 30.25 in 10.0 mi SSE 6.9 mph - N/A   Clear
8:35 PM 49.8 °F - 24.8 °F 38% 30.25 in 10.0 mi SSE 5.8 mph - N/A   Clear
8:55 PM 49.1 °F - 25.3 °F 40% 30.26 in 10.0 mi SSE 4.6 mph - N/A   Clear
9:15 PM 48.6 °F - 25.3 °F 40% 30.26 in 10.0 mi SSE 5.8 mph - N/A   Clear
9:35 PM 47.5 °F - 25.7 °F 43% 30.26 in 10.0 mi SSE 5.8 mph - N/A   Clear
9:55 PM 47.5 °F - 25.7 °F 43% 30.27 in 10.0 mi South 4.6 mph - N/A   Clear
10:35 PM 46.4 °F 43.5 °F 27.1 °F 47% 30.28 in 10.0 mi South 5.8 mph - N/A   Clear
10:55 PM 46.6 °F - 27.1 °F 47% 30.29 in 10.0 mi South 6.9 mph - N/A   Clear
11:15 PM 45.9 °F 42.9 °F 28.6 °F 51% 30.29 in 10.0 mi South 5.8 mph - N/A   Clear
11:35 PM 45.0 °F 41.8 °F 29.5 °F 55% 30.28 in 10.0 mi South 5.8 mph - N/A   Clear
11:55 PM 44.6 °F 39.2 °F 30.2 °F 57% 30.28 in 10.0 mi South 10.4 mph - N/A   Clear